[[{"header":{"parameterUnit":"m.s-1","parameterCategory":1,"la1":30.2991,"la2":30.254,"lo1":-89.0895,"lo2":-89.0444,"dy":0.0017,"dx":0.0017,"nx":28,"ny":28,"refTime":"2026-02-25T03:00:00:Z","depth":0,"parameterNumber":2,"parameterNumberName":"U-component_of_WINDS"},"data":[0,0,0,0,0,0,0,0,0,0,0,0,0,0,0,0,0,0,0,0,0,0,0,0,0,0,0,0,0,0,0,0,0,0,0,0,0,0,0,0,0,0,0,0,0,0,0,0,0,0,0,0,0,0,0,0,0,0,0.6735,0.6735,0,0.6754,0.6754,0.6754,0.6748,0.6748,0.6747,0.6747,0.6766,0.6766,0.6767,0,0,0,0,0,0,0,0,0,0,0,0,0,0.6692,0.6693,0.6735,0.6735,0.6735,0.6754,0.6754,0.6754,0.6748,0.6748,0.6747,0.6747,0.6765,0.6766,0.6767,0,0,0,0,0,0,0,0,0,0,0,0,0,0.6711,0.6693,0.6735,0.6734,0.6735,0.6754,0.6754,0.6754,0.6748,0.6748,0.6747,0.6746,0.6765,0.6766,0.6768,0.6788,0,0,0.6772,0.6772,0,0,0,0,0,0,0,0,0.671,0.6712,0.6734,0.6735,0.6735,0.6748,0.6746,0.6766,0.6748,0.6743,0.6747,0.6746,0.676,0.6762,0.6767,0.6789,0.679,0.6772,0.6772,0.6773,0.6773,0,0,0,0,0,0,0,0.6708,0.6712,0.6742,0.6735,0.6735,0.6733,0.6735,0.675,0.6755,0.6743,0.6743,0.6745,0.676,0.6765,0.6767,0.679,0.6772,0.6773,0.6774,0.6774,0.683,0.683,0,0,0,0,0,0,0.6707,0.6711,0.6742,0.6743,0.6721,0.6734,0.6736,0.6744,0.6755,0.6756,0.6746,0.6745,0.6763,0.6766,0.6768,0.6792,0.6773,0.6774,0.6775,0.6829,0.683,0.6831,0,0,0,0,0,0,0.6706,0.671,0.6741,0.6727,0.673,0.6736,0.6745,0.6745,0.675,0.6756,0.6757,0.675,0.6763,0.6766,0.6783,0.6793,0.6775,0.6776,0.6828,0.6829,0.683,0.6842,0,0,0,0,0,0,0.6705,0.671,0.6718,0.6727,0.6731,0.6756,0.6745,0.6746,0.6753,0.6752,0.6761,0.6762,0.6763,0.6781,0.6784,0.6794,0.6777,0.6827,0.6829,0.683,0.684,0.6843,0.6845,0,0,0,0,0,0.6704,0.672,0.6718,0.6722,0.6742,0.6757,0.6759,0.676,0.6754,0.6762,0.6765,0.6762,0.6791,0.6783,0.6787,0.6797,0.6827,0.6828,0.683,0.6839,0.6842,0.6845,0,0,0,0,0,0,0.6712,0.6721,0.6719,0.674,0.6748,0.6756,0.6766,0.6764,0.6773,0.6772,0.6773,0.6775,0.6792,0.6796,0.6787,0.6817,0.6808,0.681,0.6814,0.6817,0.6819,0.6818,0.6778,0,0,0,0,0,0.6716,0.6728,0.6736,0.6753,0.6757,0.6761,0.6767,0.6767,0.6776,0.6779,0.6784,0.6792,0.6803,0.681,0.6821,0.6841,0.6843,0.685,0.6852,0.6854,0.6856,0.6867,0.687,0.6836,0.6836,0.6836,0,0,0.6725,0.6732,0.6739,0.6755,0.6761,0.6773,0.6764,0.6777,0.6786,0.6781,0.6797,0.6801,0.681,0.6829,0.6837,0.6833,0.6866,0.6856,0.6858,0.6859,0.6869,0.6872,0.6875,0.6837,0.6836,0.6836,0,0,0.6747,0.6754,0.6768,0.6775,0.6784,0.6787,0.679,0.6799,0.6801,0.6818,0.6815,0.6825,0.6844,0.685,0.6856,0.688,0.6877,0.6884,0.6896,0.6906,0.6909,0.6912,0.692,0.6923,0.6886,0.6886,0.6886,0,0.6757,0.6775,0.6776,0.679,0.6796,0.6793,0.6807,0.6813,0.6826,0.683,0.6825,0.6849,0.6855,0.6875,0.6881,0.6885,0.6889,0.6883,0.6909,0.6911,0.6913,0.6921,0.6925,0.6887,0.6886,0.6886,0.6886,0,0.6786,0.6799,0.681,0.6822,0.683,0.6844,0.6847,0.6855,0.6854,0.6857,0.6874,0.688,0.6892,0.6897,0.6896,0.6917,0.6913,0.6909,0.6899,0.6917,0.6925,0.6928,0.6888,0.6887,0.6887,0.6887,0,0,0.6814,0.6827,0.6831,0.6836,0.6846,0.6856,0.687,0.6881,0.6888,0.6896,0.6908,0.6924,0.6919,0.6926,0.6926,0.6935,0.6954,0.6929,0.6929,0.6933,0.6976,0.698,0.6983,0.6952,0.6952,0.6953,0.6976,0,0.6837,0.6861,0.6863,0.6885,0.6896,0.6893,0.6905,0.6912,0.6915,0.6925,0.6928,0.694,0.6933,0.6937,0.6946,0.695,0.6962,0.6948,0.6962,0.6962,0.696,0.6987,0.6991,0.7012,0.6979,0.6979,0.6979,0,0.6867,0.6876,0.69,0.6908,0.6913,0.6924,0.6934,0.6944,0.6952,0.6954,0.6961,0.696,0.6973,0.6964,0.6982,0.6972,0.6978,0.6981,0.6982,0.6983,0.6972,0.6989,0.7019,0.7022,0.6984,0.6984,0.6983,0,0.6884,0.6903,0.6919,0.6924,0.6935,0.6942,0.6947,0.6954,0.6961,0.697,0.6975,0.6985,0.6991,0.6999,0.7001,0.6994,0.7019,0.701,0.7021,0.7021,0.7026,0.7026,0.7057,0.703,0.703,0.703,0.703,0,0.6909,0.6923,0.6928,0.6938,0.6953,0.6955,0.697,0.6974,0.6981,0.6991,0.6989,0.6999,0.7,0.701,0.7012,0.7027,0.7029,0.7031,0.7031,0.7031,0.7031,0.7035,0.7033,0.7031,0.7031,0.7031,0.7031,0,0.6931,0.6935,0.6952,0.6961,0.6963,0.6974,0.6981,0.6991,0.6994,0.7007,0.701,0.7014,0.7026,0.7028,0.7042,0.7043,0.7061,0.706,0.7058,0.7058,0.7069,0.7068,0.7104,0.7109,0.7079,0.7079,0.7079,0,0.6947,0.6958,0.6968,0.6975,0.698,0.6991,0.6998,0.7,0.7007,0.7017,0.7025,0.7037,0.7046,0.7065,0.7069,0.708,0.7078,0.709,0.708,0.708,0.7078,0.7078,0.7079,0.7092,0.7093,0.7093,0.7093,0,0.6974,0.6975,0.6986,0.6997,0.7005,0.7014,0.7022,0.7028,0.7031,0.7039,0.7051,0.7058,0.7073,0.7084,0.7094,0.7099,0.7096,0.7096,0.7099,0.7099,0.7098,0.7099,0.7064,0.7096,0.7095,0.7095,0.7095,0.7095,0.6993,0.7003,0.7011,0.7023,0.7029,0.7037,0.7046,0.705,0.7061,0.7072,0.7073,0.7086,0.7094,0.7107,0.7113,0.7123,0.7119,0.7123,0.7124,0.7125,0.7126,0.7097,0.7125,0.7125,0.7124,0.7124,0.7124,0,0.702,0.7025,0.7036,0.7048,0.7057,0.7054,0.7063,0.7071,0.7083,0.709,0.7099,0.7113,0.7124,0.7129,0.714,0.7147,0.7146,0.715,0.7149,0.715,0.7129,0.7125,0.7151,0.7151,0.7151,0.7151,0.7151,0.7151,0.7035,0.7051,0.7053,0.7072,0.7077,0.709,0.7096,0.7103,0.7109,0.7124,0.7134,0.7137,0.7144,0.7155,0.7165,0.7166,0.717,0.7174,0.7175,0.7155,0.7152,0.7149,0.7146,0.7175,0.7175,0.7195,0.7195,0.7195]},{"header":{"parameterUnit":"m.s-1","parameterCategory":1,"la1":30.2991,"la2":30.254,"lo1":-89.0895,"lo2":-89.0444,"dy":0.0017,"dx":0.0017,"nx":28,"ny":28,"refTime":"2026-02-25T03:00:00:Z","depth":0,"parameterNumber":3,"parameterNumberName":"V-component_of_WINDS"},"data":[0,0,0,0,0,0,0,0,0,0,0,0,0,0,0,0,0,0,0,0,0,0,0,0,0,0,0,0,0,0,0,0,0,0,0,0,0,0,0,0,0,0,0,0,0,0,0,0,0,0,0,0,0,0,0,0,0,0,5.6885,5.6886,0,5.6977,5.6978,5.6979,5.6955,5.6953,5.6951,5.6949,5.7041,5.7045,5.7049,0,0,0,0,0,0,0,0,0,0,0,0,0,5.6683,5.6687,5.6885,5.6886,5.6887,5.6977,5.6978,5.698,5.6955,5.6953,5.695,5.6948,5.7039,5.7044,5.7049,0,0,0,0,0,0,0,0,0,0,0,0,0,5.6773,5.6688,5.6884,5.6886,5.6887,5.6977,5.6978,5.698,5.6955,5.6953,5.695,5.6947,5.7038,5.7044,5.705,5.7144,0,0,5.7069,5.7072,0,0,0,0,0,0,0,0,5.6768,5.678,5.6884,5.6886,5.6887,5.6952,5.6941,5.7035,5.6956,5.6929,5.6949,5.6946,5.7013,5.7021,5.7045,5.7148,5.7152,5.707,5.7073,5.7076,5.7078,0,0,0,0,0,0,0,5.6761,5.6776,5.6921,5.6886,5.6887,5.688,5.689,5.6959,5.6985,5.6931,5.693,5.6941,5.7013,5.7039,5.7047,5.7153,5.7069,5.7075,5.7079,5.7081,5.7339,5.7342,0,0,0,0,0,0,5.6755,5.6771,5.6918,5.6924,5.6819,5.6886,5.6897,5.6934,5.6985,5.699,5.6944,5.694,5.7029,5.7039,5.705,5.7164,5.7076,5.7082,5.7086,5.7336,5.734,5.7343,0,0,0,0,0,0,5.675,5.6768,5.6914,5.6847,5.6865,5.6893,5.6934,5.6937,5.6962,5.6994,5.6998,5.6965,5.7028,5.7041,5.7121,5.7166,5.7085,5.709,5.7333,5.7337,5.7342,5.7392,0,0,0,0,0,0,5.6745,5.6767,5.6803,5.6848,5.6869,5.6985,5.6937,5.6941,5.6973,5.6969,5.7015,5.702,5.7026,5.7112,5.7127,5.7174,5.7095,5.7329,5.7335,5.734,5.7386,5.7398,5.7407,0,0,0,0,0,5.6738,5.6813,5.6805,5.6823,5.6915,5.6988,5.7,5.7007,5.6977,5.7014,5.7034,5.7018,5.7159,5.712,5.7137,5.7186,5.7326,5.7333,5.734,5.7382,5.7395,5.7407,0,0,0,0,0,0,5.6771,5.6819,5.6811,5.6903,5.6942,5.6984,5.703,5.7021,5.7068,5.7062,5.7068,5.7079,5.7161,5.7181,5.7137,5.728,5.7238,5.7249,5.7264,5.7277,5.7288,5.7281,5.71,0,0,0,0,0,5.6789,5.6845,5.6883,5.6961,5.6981,5.7002,5.7034,5.7036,5.7076,5.7092,5.7118,5.7157,5.721,5.7245,5.7295,5.7389,5.7399,5.7431,5.7442,5.745,5.7459,5.7511,5.7526,5.7366,5.7366,5.7366,0,0,5.6827,5.686,5.6895,5.6969,5.6999,5.7056,5.7016,5.7078,5.712,5.7101,5.7179,5.72,5.7243,5.7331,5.7371,5.7351,5.7506,5.7459,5.7466,5.747,5.752,5.7535,5.7549,5.7371,5.737,5.737,0,0,5.6926,5.6956,5.7025,5.7056,5.7104,5.7117,5.7134,5.7178,5.7191,5.7269,5.7257,5.7306,5.7397,5.7429,5.7457,5.7569,5.7556,5.7585,5.764,5.769,5.7703,5.7714,5.7755,5.7769,5.7594,5.7594,5.7594,0,5.6967,5.7053,5.7061,5.7125,5.7157,5.7144,5.7213,5.7243,5.7303,5.7326,5.7303,5.7417,5.7445,5.7541,5.7568,5.7591,5.761,5.758,5.7701,5.7712,5.7723,5.7761,5.7776,5.7597,5.7597,5.7596,5.7596,0,5.7102,5.7162,5.7211,5.7272,5.731,5.7376,5.7393,5.743,5.7429,5.7446,5.7526,5.7559,5.7617,5.7639,5.7638,5.7735,5.7721,5.7699,5.7657,5.7741,5.7778,5.7792,5.7602,5.7601,5.76,5.7599,0,0,5.7224,5.7288,5.7306,5.7334,5.7385,5.7432,5.7497,5.7554,5.7587,5.7629,5.7683,5.7761,5.7742,5.7774,5.7776,5.7821,5.7908,5.7793,5.7795,5.7814,5.8017,5.8033,5.805,5.7899,5.7902,5.7904,5.8013,0,5.7327,5.7444,5.7452,5.7557,5.7613,5.7601,5.7658,5.7695,5.7712,5.7761,5.7779,5.7835,5.7805,5.7824,5.7867,5.7888,5.7949,5.788,5.795,5.7953,5.794,5.8069,5.8087,5.8188,5.8028,5.803,5.8032,0,5.7463,5.7512,5.7622,5.7667,5.769,5.7742,5.7795,5.7843,5.7884,5.7893,5.793,5.7926,5.7993,5.7948,5.804,5.7993,5.8022,5.8037,5.8041,5.8048,5.7998,5.808,5.822,5.8236,5.8054,5.8052,5.8051,0,5.7542,5.7634,5.7713,5.7737,5.779,5.7827,5.785,5.789,5.7924,5.797,5.7992,5.8046,5.8075,5.8116,5.8127,5.8093,5.8218,5.8174,5.8228,5.8228,5.8255,5.8253,5.8402,5.8273,5.8273,5.8272,5.8272,0,5.7657,5.7725,5.7749,5.7798,5.7874,5.7883,5.7957,5.7979,5.8014,5.8066,5.8058,5.8107,5.8118,5.8168,5.8177,5.8252,5.8265,5.8274,5.8276,5.8275,5.8274,5.8295,5.8288,5.8276,5.8275,5.8275,5.8274,0,5.7758,5.7777,5.7862,5.7906,5.7918,5.7973,5.801,5.8056,5.8072,5.8138,5.8154,5.8179,5.8238,5.8253,5.8323,5.8329,5.8418,5.8412,5.8404,5.8404,5.8457,5.8452,5.8625,5.8648,5.8503,5.8504,5.8505,0,5.783,5.7883,5.7933,5.7968,5.7994,5.805,5.8085,5.8096,5.8133,5.8185,5.8225,5.8284,5.8331,5.8426,5.845,5.8504,5.85,5.8557,5.8508,5.8507,5.8502,5.8499,5.8505,5.8566,5.8568,5.8569,5.857,0,5.7957,5.7964,5.8016,5.8072,5.8115,5.8159,5.8201,5.8229,5.8246,5.8288,5.8349,5.8386,5.8458,5.8517,5.8571,5.8595,5.8586,5.8586,5.8601,5.8601,5.8595,5.86,5.843,5.8582,5.858,5.858,5.8579,5.8579,5.8047,5.8093,5.8137,5.8195,5.8228,5.8267,5.8313,5.8336,5.8388,5.8449,5.8451,5.8518,5.8559,5.8631,5.8658,5.871,5.8693,5.8714,5.872,5.8726,5.8731,5.8586,5.872,5.8719,5.8719,5.8719,5.8719,0,5.8174,5.8201,5.8255,5.8315,5.8361,5.8349,5.8395,5.8434,5.8493,5.8533,5.858,5.8651,5.8707,5.8736,5.8793,5.8829,5.8826,5.8843,5.8841,5.8847,5.8743,5.8724,5.8844,5.8844,5.8844,5.8844,5.8844,5.8844,5.8245,5.8324,5.8336,5.8431,5.8457,5.8524,5.8551,5.8588,5.8619,5.8699,5.8747,5.8766,5.8801,5.886,5.8911,5.8918,5.894,5.8959,5.8964,5.8866,5.8854,5.8841,5.8824,5.8964,5.8964,5.9064,5.9065,5.9065]}]]